Погода в Лиманском

Украина / Одесская область     45°25′55″N   28°24′45″E
темп.,
°C
ветер,
м/с
пор.,
м/с
влажн.,
%
обл.,
%
осадки,
мм/ч
давл.,
гПа
погр.,
м
9 мая, вс
вс900:00+10с595998 0.0 1022476
03:00+8сз496727 0.0 1024246
06:00+6ссз47660 0.0 1025146
09:00+11ссз46510 0.0 1026832
12:00+15ссз46385 0.0 10272195
15:00+16сз343495 0.0 10262213
18:00+17з13326 0.0 10262054
21:00+13ююз33475 0.0 102626
10 мая, пн
пн1000:00+11ююз34615 0.0 102762
03:00+9юз33704 0.0 102772
06:00+8юз22725 0.0 102742
09:00+13ююв33536 0.0 1027392
12:00+17ююв34411 0.0 10271179
15:00+19ююв33380 0.0 10251503
18:00+18ююв43435 0.0 10241073
21:00+13ю58605 0.0 1024180
11 мая, вт
вт1100:00+11ю23605 0.0 102442
03:00+10зсз22595 0.0 102340
06:00+8з34650 0.0 102266
09:00+13зсз22480 0.0 1022357
12:00+17зюз12410 0.0 10201128
15:00+20юз22370 0.0 10181652
18:00+20юз23383 0.0 10161420
21:00+15зсз22553 0.0 101510
12 мая, ср
ср1200:00+14всв12574 0.0 101511
03:00+12з33676 0.0 101353
06:00+11ссз117252 0.0 101236
09:00+15вюв437637 0.0 1012603
12:00+17в647069 0.1 1011995
15:00+18в556520 0.1 1010888
18:00+18вюв6860100 0.2 1009864
21:00+14юв7117096 0.2 1010389
13 мая, чт
чт1300:00+12юв610795 0.0 1010395
03:00+12юв5985100 0.0 1009370
06:00+11вюв598299 0.0 1008302
09:00+15юв567212 0.0 1008814
12:00+19ююв565717 0.0 10071089
15:00+21ююв565511 0.0 10061139
18:00+21ююв565899 0.0 1006710
21:00+15юв6889100 0.0 1007167